Other Public Products
Issued by NWS Grand Forks, ND

Home | Current Version | Previous Version | Graphics & Text | Print | Product List | Glossary On
Versions: 1 2 3 4 5 6 7 8 9 10 11 12 13 14 15 16 17 18 19 20 21 22 23 24 25 26 27 28 29 30 31 32 33 34 35 36 37 38 39 40 41 42 43 44 45 46 47 48 49 50
000
FPUS83 KFGF 251331
OPUFGF
PRAIRIE TO PINES WEATHER ROUNDUP
NATIONAL WEATHER SERVICE EASTERN NORTH DAKOTA/GRAND FORKS ND
800 AM CDT WED MAY 25 2016

 **SATELLITE DATA USED TO AUGMENT SKY COVER AT AUTOMATED STATIONS**
 *****  WEATHER ACROSS EASTERN NORTH DAKOTA  *****

CITY           SKY/WX    TMP DP  RH WIND       PRES   REMARKS
GRAND FORKS    CLOUDY    65  52  62 E12       29.81S
GRAND FORKS AF NOT AVBL
GRAND CITY NWS   N/A     63 N/A N/A E9          N/A
BUXTON           N/A     63  58  83 SE2         N/A
DEVILS LAKE    CLOUDY    62  54  74 SE8       29.86R
FARGO          CLOUDY    66  53  63 SE15      29.80R
WAHPETON ARPT  CLOUDY    64  54  68 E10       29.80F
$$

 *****  WEATHER ACROSS CENTRAL AND WESTERN NORTH DAKOTA  *****

CITY           SKY/WX    TMP DP  RH WIND       PRES   REMARKS
JAMESTOWN      NOT AVBL
BISMARCK       PTSUNNY   60  56  86 NE3       29.82R
MINOT          LGT RAIN  58  54  86 NW6       29.83F
MINOT AFB      LGT RAIN  56  55  95 SE2       29.84S
GARRISON         N/A     56  54  93 NE5       29.81F
WILLISTON      CLOUDY    53  48  83 N9        29.84S
DICKINSON      CLOUDY    53  50  89 SE9       29.81S
HETTINGER      CLOUDY    54  49  83 CALM      29.85R
$$

 *****  OTHER OBSERVATIONS NORTHEAST NORTH DAKOTA  *****

CITY           SKY/WX    TMP DP  RH WIND       PRES   REMARKS
WALHALLA       FAIR      57  57 100 N3        29.87S
LANGDON        FAIR      63  54  72 E9        29.87R
CAVALIER       FAIR      59  55  88 N7        29.86R
GRAFTON        FAIR      63  59  88 E7        29.85S
CANDO          FAIR      61  50  67 SE9       29.87S
FORT TOTTEN      N/A     61  50  68 S7        29.95S
ROLLA          FAIR      55  48  76 N9        29.88R
RUGBY          FAIR      59  52  77 NW6       29.84S
 ***** THE ABOVE OBSERVATIONS ARE NON NWS ARE NOT QUALITY
        CONTROLLED AND MAY MIS-REPORT RAIN FOR SNOW...
$$

 *****  OTHER OBSERVATIONS SOUTHEAST NORTH DAKOTA *****

CITY           SKY/WX    TMP DP  RH WIND       PRES   REMARKS
COOPERSTOWN    NOT AVBL
VALLEY CITY    FAIR      61  57  88 E10       29.81F
OAKES            N/A    N/A N/A N/A MISG        N/A
GWINNER        FAIR      63  55  77 SE8       29.80S
SHEYENNE NWR     N/A     62  55  77 E7        29.95S
BUFFALO          N/A     62  55  76 E9          N/A
WYNDMERE         N/A     64  57  77 SE8         N/A
 ***** THE ABOVE OBSERVATIONS ARE NON NWS ARE NOT QUALITY
       CONTROLLED AND MAY MIS-REPORT RAIN FOR SNOW...
$$

  *****  WEATHER ACROSS NORTHERN MINNESOTA  *****

CITY           SKY/WX    TMP DP  RH WIND       PRES   REMARKS
FLAG ISLAND    CLOUDY    61  55  82 NE6       29.91F
WARROAD        CLOUDY    57  54  88 E9        29.92S
ROSEAU         PTSUNNY   63  55  77 E7        29.90S
HALLOCK        CLOUDY    64  54  68 E13       29.85R
THF RVR FALLS  CLOUDY    64  52  63 E14       29.88R
HALSTAD        NOT AVBL
FOSSTON        CLOUDY    59  54  82 E7        29.87S
BAUDETTE       MOSUNNY   57  53  86 E8        29.92F
WASKISH        CLOUDY    57  55  94 E8        29.93S
CROOKSTON      CLOUDY    64  54  68 E12       29.84R
$$
  *****  WEATHER ACROSS CENTRAL AND WEST MINNESOTA  *****

CITY           SKY/WX    TMP DP  RH WIND       PRES   REMARKS
BEMIDJI        CLOUDY    57  55  92 E10       29.92S
PARK RAPIDS    CLOUDY    60  55  83 E8        29.90S
WADENA         CLOUDY    57  55  94 E7        29.88F
DETROIT LAKES  CLOUDY    61  54  77 SE13      29.87F
MOORHEAD       CLOUDY    64  55  72 E14       29.80F
FERGUS FALLS   CLOUDY    63  55  77 E9        29.80S
ELBOW LAKE     FAIR      63  57  81 SE15      29.81F
MORRIS MN      CLOUDY    66  61  82 SE15G22   29.81S
STAPLES        CLOUDY    57  55  94 E8        29.89F
WHEATON        CLOUDY    66  61  82 E10       29.79F
$$
  *****  WEATHER ELSEWHERE ACROSS MINNESOTA  *****

CITY           SKY/WX    TMP DP  RH WIND       PRES   REMARKS
DULUTH         DRZL/FOG  50  49  96 E12       30.02R VSB 1/4
INTRNTL FALLS  CLOUDY    55  55 100 E7        29.97S FOG
ELY            CLOUDY    57  50  77 SE8       30.02S
CLOQUET        FOG       48  46  93 E12G21    30.01R VSB 1/2
BRAINERD       CLOUDY    56  54  93 E7        29.93S
HIBBING        CLOUDY    54  51  90 E8        29.99S
ALEXANDRIA     CLOUDY    60  55  83 E12       29.87S
SAINT CLOUD    CLOUDY    60  57  89 E9        29.90R
MINNEAPOLIS    CLOUDY    70  58  65 SE15      29.89S
$$

  *****  WEATHER ACROSS SOUTH DAKOTA  *****

CITY           SKY/WX    TMP DP  RH WIND       PRES   REMARKS
SIOUX FALLS    CLOUDY    63  58  83 S10       29.82S
BROOKINGS      CLOUDY    61  58  90 SE14      29.77R
WATERTOWN      LGT RAIN  63  58  83 SE14G21   29.74F
HURON          CLOUDY    60  58  92 MISG      29.74R
SISSETON         N/A     60  56  86 CALM      29.78F
ABERDEEN       RAIN      60  56  86 NE12      29.77F
MITCHELL       CLOUDY    63  61  93 SW8       29.76S
PIERRE         MOSUNNY   57  54  89 SW9       29.77R
MOBRIDGE       PTSUNNY   61  53  75 E6        29.74R
RAPID CITY     MOSUNNY   53  48  83 CALM      29.86S
$$

  *****  SOME WEATHER IN NEARBY STATES *****

CITY           SKY/WX    TMP DP  RH WIND       PRES   REMARKS
GLASGOW MT     CLOUDY    48  44  86 E3        29.88S
GREAT FALLS MT SUNNY     44  40  85 SW9       29.90R
CHEYENNE WY    SUNNY     47  36  65 W9        30.01R
SCOTTSBLUFF NE MOSUNNY   52  47  83 CALM      29.93S
OMAHA NE       CLOUDY    66  61  84 NE3       29.89R
DES MOINES IA  CLOUDY    66  63  90 S7        29.91R
DAVENPORT IA   CLOUDY    69  62  78 SE12      29.96F
CHICAGO IL     MOSUNNY   72  63  73 S7        30.01R
EAU CLAIRE WI  CLOUDY    66  58  75 SE10      29.95S
LA CROSSE WI   PTSUNNY   67  58  72 E5        29.94R
$$

  *****  SOME NATIONAL WEATHER *****

CITY           SKY/WX    TMP DP  RH WIND       PRES   REMARKS
LA GUARDIA NY  MOSUNNY   72  52  49 W5        30.06S
RALEIGH NC     MOSUNNY   70  59  68 SW6       30.23R
ATLANTA GA     MOSUNNY   72  54  53 S8        30.24R
NEW ORLEANS LA MOSUNNY   79  74  84 SE8       30.11R
OKLAHOMA CITY  PTSUNNY   76  72  87 S20G30    29.88R
ALBUQUERQUE NM SUNNY     59  13  16 NW5       30.13R
SALT LAKE CITY MOCLDY    54  41  61 SE9       29.99R
LOS ANGELES CA MOCLDY    57  50  77 CALM      30.05R
BOISE ID       PTCLDY    50  42  74 CALM      29.97R
SEATTLE WA     CLOUDY    53  50  89 S7        30.11R
$$

*** WEATHER ACROSS MANITOBA...SASKATCHEWAN AND ONTARIO ***
                ***ONTARIO***

CITY           SKY/WX    TMP DP  RH WIND       PRES   REMARKS
GERALDTON      PTSUNNY   46  41  81 E6        30.14F
THUNDER BAY    CLOUDY    50  45  81 E12       30.10F
SIOUX LOOKOUT  CLOUDY    52  52 100 SE5       30.04  FOG
TORONTO        PTSUNNY   68  52  56 W5        30.03R
BIG TROUT LK   CLOUDY    48  41  76 SE7       30.09R
PICKLE LAKE    PTSUNNY   52  46  82 S9        30.08R
DRYDEN         CLOUDY    52  52 100 E5        30.02S
KENORA         PTSUNNY   55  54  94 NE8       29.96F
$$
                *** MANITOBA***

CITY           SKY/WX    TMP DP  RH WIND       PRES   REMARKS
BRANDON        PTSUNNY   57  52  82 NE14      29.86F
DAUPHIN        FOG       50  50 100 VRB2      29.94R VSB 3/8
ISLAND LAKE    PTSUNNY   48  45  87 VRB2      30.00
PILOT MOUND      N/A     61  50  67 NE7         N/A
THE PAS        MOSUNNY   50  45  81 E5        29.97R
THOMPSON       PTSUNNY   43  37  81 VRB2      30.02F
WINNIPEG       PTSUNNY   59  52  77 NE8       29.89F
LYNN LAKE      MOSUNNY   50  41  71 SW8       29.96F
CHURCHILL      LGT RAIN  34  30  86 SE13      30.09F WCI  25
GILLAM         CLOUDY    45  37  76 SE5       30.07S
$$
                ***SASKATCHEWAN***

CITY           SKY/WX    TMP DP  RH WIND       PRES   REMARKS
ESTEVAN          N/A     50  46  87 NE7       29.86S
KINDERSLEY     CLOUDY    46  46 100 NW5       29.90R
LLOYDMINSTER   MOSUNNY   46  45  93 S5        29.91R
PRINCE ALBERT  FOG       45  45 100 E6        29.93F VSB 5/8
REGINA         PTSUNNY   43  41  93 SE7       29.90R
YORKTON        MOSUNNY   50  48  93 N3        29.91F   C1F1C2F2C3F3C4F4C5F5C6F6C7F7C8F8C9F9CaFaCbFbCcFcCdFdCe!


USA.gov is the U.S. government's official web portal to all federal, state and local government web resources and services.